Location: Hesters Ferry
(33.9426°N, 82.5501°W)
Time: 18:15:09
(UTC+00:00)

ARIANE 6 FM1 Upper Stage - Pass Details

Date: 16 June 2025
Orbit: 528 x 612 km, 62.0° (Epoch: 19 July)

Event Time Altitude Azimuth Distance (km) Brightness Sun altitude
Rises 01:58:12 0° 335° (NNW) 2,732 7.5 -13.6°
Reaches altitude 10° 02:00:30 10° 344° (NNW) 1,848 6.2 -14.0°
Maximum altitude 02:04:25 39° 53° (NE) 863 3.5 -14.6°
Enters shadow 02:06:30 23° 107° (ESE) 1,229 3.9 -14.9°
